User: anonymous   Login
Location: Unspecified
(0.0000°N, 0.0000°E)
Time: 12:05:34
(UTC+00:00)
Language:

SES 6 - Orbit

View from above orbital plane
View from above orbital plane
View from above satellite
View from above satellite

Ground track
Ground track

The orbit data is extracted from the following two-line orbital elements,

1 39172U 13026A   15116.22680942 -.00000281  00000-0  00000+0 0  9992
2 39172 000.0223 296.1258 0002167 089.8061 229.1166 01.00270928  6936
Epoch (UTC): 26 April 2015 05:26:36
Eccentricity: 0.0002167
inclination: 0.0223°
perigee height: 35777 km
apogee height: 35795 km
right ascension of ascending node: 296.1258°
argument of perigee: 89.8061°
revolutions per day: 1.00270928
mean anomaly at epoch: 229.1166°
orbit number at epoch: 693

The dashed part of the orbit path shows where the satellite is in the earth's shadow,  

DLR